RH
90 90 92 88 35 40 44 54 52 49 44 86 93 80 85 94 97 97 94 78 73 69 63 62 61 57 54 56 61 70 85 91 73 66 52 38 38 33 31 30 30 27 29 27 27
100 83 92 95 75 41 52 57 52 48 47 46 92 97 95 96 100 100 90 80 77 73 68 71 65 58 55 63 65 82 96 74 64 56 49 43 42 40 36 38 35 32 29 27 26
86 92 82 93 86 46 52 59 47 46 48 44 47 82 89 100 97 83 74 78 78 83 80 80 71 64 64 66 71 84 87 63 62 57 56 54 49 44 42 49 36 34 34 32 28
78 90 80 83 89 74 47 62 55 58 56 54 50 47 79 88 82 69 70 73 74 79 99 89 80 70 76 79 69 80 75 74 68 63 66 64 60 58 48 45 37 37 39 35 40
74 78 94 83 84 82 66 70 65 63 61 58 61 77 59 80 79 68 64 66 70 86 98 99 86 76 79 76 74 83 80 69 65 62 63 63 68 72 65 57 49 42 44 40 34
87 76 84 96 84 83 77 81 65 70 70 65 63 84 83 78 45 48 68 68 79 96 100 99 93 81 81 82 74 70 71 69 63 59 59 64 62 62 57 55 52 48 44 40 39
98 88 79 88 93 78 82 75 76 77 77 71 66 72 89 61 55 55 72 76 83 98 98 98 96 86 85 86 78 76 82 76 70 62 63 55 68 71 54 51 53 50 50 42 39
100 91 84 80 90 87 82 72 77 84 85 83 85 83 69 54 50 60 62 73 76 86 72 70 83 89 95 83 71 77 80 92 65 63 59 58 71 55 43 50 54 47 46 42 38
99 100 89 90 88 95 88 68 70 88 93 77 92 88 77 64 55 49 65 60 65 64 74 74 68 68 73 85 85 77 88 86 70 56 64 75 70 53 52 51 57 54 51 45 41
86 100 96 86 94 92 88 68 79 99 84 84 99 96 73 65 59 54 52 66 69 69 74 75 67 77 82 90 92 78 86 78 72 62 69 76 75 59 51 50 55 50 48 48 44
83 97 100 88 98 98 93 91 99 99 94 76 83 79 68 70 66 64 61 63 67 67 83 71 87 95 82 82 78 91 90 90 70 59 72 72 71 62 55 59 62 56 54 50 44
84 85 99 98 98 100 91 86 84 75 90 80 81 95 78 79 75 69 66 68 76 86 77 82 96 73 70 70 76 79 87 83 65 58 74 76 73 58 54 54 54 59 55 54 49
86 82 94 96 99 100 91 69 78 81 79 76 80 91 91 85 84 75 74 71 80 93 92 90 67 65 72 78 79 77 87 84 80 67 64 70 67 42 34 37 40 43 44 45 50
93 86 94 100 100 99 99 87 83 75 92 73 96 90 90 84 77 75 67 69 79 93 90 90 70 73 77 81 80 90 72 76 82 89 88 67 80 45 42 36 39 37 43 47 43
83 89 80 99 100 100 93 92 76 65 86 72 91 96 92 75 78 84 74 70 78 82 84 82 89 92 90 73 73 75 65 78 83 91 94 83 93 67 50 52 48 60 50 47 43
82 76 77 84 100 94 82 92 71 85 95 91 90 90 92 85 77 81 81 76 84 77 78 73 72 74 74 63 65 65 75 78 81 88 94 70 89 56 44 40 37 32 36 34 32
98 62 70 94 99 97 85 78 93 94 66 87 85 80 74 83 79 81 87 95 95 100 97 94 88 80 75 83 72 75 100 97 98 97 86 66 80 60 39 38 38 35 38 32 32
92 57 63 78 99 99 79 79 91 69 87 74 78 78 83 76 76 77 86 93 83 97 100 99 92 86 85 75 80 83 86 94 93 94 82 59 71 59 46 39 36 34 37 40 40
93 84 98 82 100 91 71 85 78 71 76 82 82 94 97 76 73 81 86 88 62 79 98 99 94 86 75 74 65 98 98 73 94 95 97 82 69 52 52 46 52 45 36 36 41
99 95 76 94 98 95 77 85 74 68 73 70 85 77 85 84 85 90 77 71 70 63 70 78 96 80 82 80 77 92 78 98 98 96 94 78 72 63 52 47 54 53 56 40 36
99 94 97 99 98 95 93 83 78 78 68 76 78 85 72 77 81 84 76 65 76 78 74 71 90 87 92 96 86 98 100 100 95 96 86 77 65 57 58 57 64 59 50 46 43
99 100 99 100 98 97 94 83 75 88 80 79 73 75 79 73 79 79 83 72 66 78 86 70 95 96 81 67 65 68 78 80 88 87 85 85 59 53 64 65 64 63 66 57 53
99 95 100 90 99 99 90 85 80 90 82 79 84 74 72 87 96 81 82 64 69 81 83 74 98 98 91 85 81 100 87 69 66 80 86 87 51 28 35 51 69 76 82 84 84
95 99 99 99 94 87 84 82 95 77 75 72 77 78 87 96 89 87 86 64 72 74 70 67 98 95 92 83 96 98 94 98 91 94 72 70 58 43 43 74 76 73 87 91 89
97 100 98 100 98 77 71 80 86 93 78 78 86 84 94 99 99 96 84 75 69 66 70 84 99 94 95 92 100 100 96 100 98 78 83 57 54 43 64 71 87 79 86 95 96
93 94 98 91 85 77 81 87 79 86 86 85 93 78 90 98 79 77 82 73 65 84 88 92 97 98 97 86 96 98 97 96 88 77 73 64 63 45 62 74 83 86 84 95 93
95 96 84 88 80 93 82 87 74 76 84 75 80 91 96 89 84 79 67 64 72 74 89 98 100 100 93 99 95 100 91 90 88 72 69 86 60 46 51 79 77 68 64 79 85
Wind_Speed
19 17 19 17 14 11 11 11 11 11 11 10 6 12 13 15 16 17 16 11 7 12 7 7 8 7 4 3 6 4 1 5 6 7 5 1 1 3 4 4 6 3 3 2 3
20 17 16 16 16 13 10 11 10 10 10 9 9 11 13 16 14 21 17 13 8 7 9 7 5 3 4 3 5 4 3 6 5 5 4 4 4 6 4 10 8 10 6 7 8
21 19 17 17 17 15 12 10 8 7 8 8 9 10 10 8 13 20 23 23 18 11 12 8 5 2 3 4 5 3 6 2 4 7 9 6 7 9 3 5 12 10 11 6 11
22 21 18 18 17 15 12 10 7 6 6 7 7 10 11 10 6 2 5 8 22 23 15 11 6 3 3 4 6 2 6 5 5 10 7 3 5 8 12 17 13 11 10 9 8
20 24 21 18 17 15 13 10 8 6 5 5 6 6 8 11 15 2 3 5 9 21 22 14 8 5 4 3 1 4 3 7 7 12 14 18 17 12 19 25 26 26 23 19 17
22 22 24 21 15 16 13 12 10 7 6 6 6 6 8 4 11 17 7 4 5 15 18 16 6 8 3 3 3 1 5 8 8 11 12 9 16 15 19 17 22 21 25 23 23
19 22 25 21 18 17 13 13 11 8 6 6 6 7 11 18 8 7 14 9 10 11 10 14 13 6 3 2 3 3 4 6 7 9 7 10 16 18 27 30 32 35 27 27 26
17 23 24 23 22 18 14 14 11 8 6 6 6 7 8 7 9 12 19 14 11 10 8 3 3 9 8 5 4 3 2 3 5 4 8 11 17 8 14 27 30 37 38 32 31
24 21 24 24 22 18 13 11 12 9 8 6 7 7 9 7 9 12 13 16 18 12 9 3 3 4 4 3 3 5 5 5 6 4 5 10 4 3 9 11 18 24 28 30 32
27 24 24 25 23 20 14 12 13 12 9 7 9 6 9 2 2 5 15 12 6 11 9 7 6 3 3 4 5 4 4 3 8 3 5 10 16 14 22 26 22 28 29 28 32
23 23 18 27 25 23 20 19 9 6 15 11 7 6 1 1 3 2 8 16 8 8 5 3 5 7 10 7 3 1 5 11 6 8 8 13 18 17 16 19 20 26 28 33 35
23 25 18 28 27 30 27 23 19 5 4 23 20 15 6 3 1 4 10 11 6 5 4 1 10 7 5 5 7 8 10 13 13 13 11 12 24 18 15 21 26 24 30 28 35
23 22 21 27 25 36 32 29 21 14 1 5 20 24 13 12 5 7 14 9 3 5 6 7 3 7 10 5 7 9 10 8 12 8 13 14 28 19 21 29 34 34 37 38 33
23 21 21 15 24 40 36 28 19 11 4 4 4 5 12 10 5 20 18 9 3 9 5 9 12 7 5 6 8 14 8 13 13 6 7 3 10 8 9 16 12 25 27 31 36
23 24 24 21 17 41 34 32 22 10 2 3 6 7 11 15 2 4 17 12 7 8 6 6 5 7 15 16 7 5 6 9 10 8 8 9 6 5 5 8 8 9 25 28 30
26 29 21 28 19 41 33 29 21 6 6 6 5 6 6 6 3 4 9 10 0 10 12 11 5 4 6 8 11 3 5 4 3 7 10 13 10 15 8 13 8 16 29 31 31
37 30 22 28 10 39 39 34 5 4 0 6 5 6 6 6 5 5 6 8 6 4 8 4 15 4 4 4 7 10 2 2 5 6 8 7 11 23 5 8 9 13 23 30 32
16 19 21 38 16 43 49 6 4 6 5 5 5 8 6 6 4 7 4 7 11 5 1 4 5 12 11 14 7 15 11 5 4 4 4 6 8 8 11 20 31 30 29 27 25
2 11 18 38 23 50 34 3 8 7 7 9 11 4 5 6 3 6 8 6 7 15 6 3 4 2 7 8 8 5 10 13 6 4 4 5 8 9 11 9 11 17 25 29 28
5 5 13 15 50 38 11 7 4 4 6 5 5 5 6 7 8 7 6 4 6 12 7 2 6 6 4 9 10 7 1 3 5 4 4 6 7 11 10 11 12 13 11 26 28
2 5 9 23 44 24 7 3 3 6 7 4 4 5 4 6 8 5 5 4 7 5 13 5 4 1 5 10 12 8 5 6 2 4 4 4 6 5 7 3 14 19 22 26 30
5 2 24 51 8 4 5 6 5 5 3 3 3 4 5 7 7 6 7 5 7 9 10 9 3 6 14 5 14 14 10 15 6 5 4 4 13 5 2 7 14 20 21 16 25
2 3 31 48 4 6 5 4 3 4 3 3 3 2 4 6 4 8 4 6 15 10 11 10 5 4 4 1 6 10 16 18 15 1 10 5 8 9 2 12 15 15 9 3 12
2 3 12 19 4 9 9 5 4 6 5 3 2 5 4 5 8 3 3 5 20 13 10 15 4 9 12 13 4 7 16 17 16 9 19 21 15 19 13 12 10 18 4 8 14
4 3 4 5 4 8 4 9 6 5 3 9 5 9 6 5 5 6 6 8 6 13 8 8 8 13 22 22 13 11 13 15 19 22 11 16 21 16 6 8 7 20 9 12 17
5 4 5 8 16 6 5 6 11 6 8 5 7 7 9 5 7 6 6 6 6 3 8 4 6 7 19 18 18 16 15 17 24 21 21 22 24 5 4 12 15 25 12 15 19
4 7 9 10 9 7 6 6 9 6 9 7 12 9 8 13 22 22 13 12 5 3 8 4 3 3 8 6 5 3 16 19 16 21 19 18 23 13 17 12 17 19 18 18 20
Wind_Direction
282 299 309 309 291 279 279 285 286 284 279 275 246 222 222 238 247 249 255 255 235 233 236 247 257 254 257 214 196 163 109 226 221 170 234 27 341 225 314 281 329 266 239 197 205
272 284 300 305 304 279 272 280 282 280 277 265 245 242 231 235 255 247 249 244 232 236 230 253 254 271 211 185 187 173 194 231 193 197 255 269 301 325 324 318 313 312 273 274 233
279 276 286 295 307 285 269 273 269 272 276 272 254 239 240 243 272 273 256 243 235 235 236 245 246 232 209 193 193 188 234 256 266 277 295 277 286 280 265 279 272 288 314 287 230
270 270 274 282 296 292 264 266 256 262 270 270 258 244 229 216 235 214 238 237 228 221 227 231 235 180 173 211 214 211 245 238 260 292 304 276 312 303 265 259 267 275 303 293 245
271 265 265 266 282 291 268 258 248 250 261 260 248 245 227 224 239 265 222 220 211 211 217 209 212 172 197 212 243 210 235 265 275 295 287 284 270 267 260 266 267 268 280 273 263
264 259 261 255 263 280 270 253 245 242 249 253 250 231 228 245 255 239 197 170 166 189 203 212 203 216 258 236 180 241 288 270 280 267 273 268 269 261 259 264 273 271 271 269 271
266 255 251 253 252 271 265 248 242 237 238 244 252 241 241 249 248 234 190 162 149 176 201 220 216 189 172 236 271 272 303 297 230 238 249 270 264 241 260 256 259 265 268 269 264
308 251 244 247 246 243 250 245 232 229 235 238 250 254 250 257 245 223 202 185 164 162 156 133 189 231 244 305 321 264 176 311 313 245 241 185 258 309 298 236 235 250 254 255 257
298 304 235 237 240 238 235 232 214 221 221 227 251 256 262 254 249 221 207 209 217 219 205 172 186 196 175 164 290 202 247 240 296 284 259 209 298 232 340 289 260 257 258 254 253
283 282 236 226 234 231 218 199 204 209 206 224 236 270 251 252 228 195 210 199 171 193 205 229 213 196 159 178 226 223 226 241 249 261 352 289 276 281 287 290 282 280 274 268 261
293 286 271 221 227 220 192 177 175 220 200 203 212 210 344 174 187 220 199 178 147 156 175 188 207 211 203 212 284 38 272 270 275 300 308 276 276 277 278 271 267 273 273 274 267
301 273 289 225 222 211 199 185 189 150 215 234 232 235 200 86 122 209 166 163 158 178 129 37 242 229 204 210 237 254 270 273 280 261 261 282 278 279 264 260 257 254 263 264 267
294 284 286 225 228 204 197 196 195 203 335 256 228 232 222 241 241 208 184 188 151 154 193 209 191 217 197 196 226 237 241 260 259 299 278 294 285 268 257 245 249 245 245 256 257
288 284 270 241 241 191 188 180 174 176 58 247 205 231 204 208 264 220 204 173 171 196 188 250 247 234 193 208 190 257 200 238 255 251 258 142 288 259 282 282 243 248 241 242 250
279 284 266 259 296 179 181 183 183 158 21 157 148 151 166 165 126 180 199 201 190 184 166 223 182 214 228 230 170 252 181 212 230 239 269 237 276 288 236 268 261 248 242 242 244
287 279 272 261 191 182 176 167 140 59 249 172 129 166 153 195 154 118 187 202 195 230 227 240 195 201 212 230 198 166 231 251 247 233 247 225 203 271 240 240 234 239 245 250 246
291 254 246 238 244 176 161 147 84 167 131 171 171 164 182 165 204 182 172 193 187 197 225 233 238 208 213 190 193 217 199 237 222 211 247 177 211 245 252 278 253 255 250 255 245
286 224 237 233 277 166 150 106 128 178 184 127 134 144 172 169 232 192 193 223 218 216 273 232 287 209 186 212 188 198 197 221 239 230 257 221 241 250 225 241 253 255 255 265 258
317 195 221 229 230 160 154 164 187 192 157 146 144 141 189 188 202 188 224 235 223 194 208 222 260 295 200 210 186 177 212 222 266 230 247 242 280 289 252 253 256 251 241 239 245
199 193 230 228 169 169 151 173 154 144 121 132 136 185 160 167 179 185 200 220 221 205 174 264 271 201 199 203 249 200 299 169 205 237 243 254 270 245 316 321 316 272 245 247 244
208 137 208 185 164 174 179 162 146 151 120 140 165 152 182 159 182 189 238 256 193 174 177 199 227 340 152 212 192 197 196 213 240 198 214 274 264 211 166 257 353 329 281 251 229
161 115 168 164 156 196 166 151 130 132 110 99 101 100 165 158 188 213 230 234 172 152 182 199 255 241 237 211 211 216 226 212 208 207 227 177 258 189 126 36 2 343 320 284 225
239 140 167 160 176 167 155 102 105 126 141 115 119 190 179 168 212 212 212 252 182 178 180 165 218 280 285 301 203 219 220 222 232 156 227 210 258 210 267 346 1 351 336 141 164
157 42 126 179 197 147 155 150 108 105 127 139 137 160 164 207 225 270 243 278 184 200 187 174 223 218 250 247 195 213 218 211 206 226 243 237 273 269 312 334 337 359 268 168 166
86 171 172 178 196 151 126 157 159 144 183 187 195 217 191 206 205 234 230 276 196 214 196 179 251 237 252 262 244 234 212 191 209 219 214 260 251 269 319 297 342 334 251 185 174
167 152 156 155 153 140 139 181 179 149 170 195 224 215 215 236 208 212 208 191 236 152 163 197 273 287 284 284 266 227 216 207 217 224 240 251 269 287 194 345 316 294 244 199 177
311 177 128 148 150 156 190 166 187 155 199 196 199 221 231 239 239 250 242 255 264 260 217 206 252 293 286 311 313 149 223 219 217 220 220 231 247 260 283 276 257 259 282 218 191